[[{"header":{"parameterUnit":"m.s-1","parameterCategory":1,"la1":30.2991,"la2":30.254,"lo1":-89.0895,"lo2":-89.0444,"dy":0.0017,"dx":0.0017,"nx":28,"ny":28,"refTime":"2024-06-09T03:00:00:Z","depth":0,"parameterNumber":2,"parameterNumberName":"U-component_of_WINDS"},"data":[0,0,0,0,0,0,0,0,0,0,0,0,0,0,0,0,0,0,0,0,0,0,0,0,0,0,0,0,0,0,0,0,0,0,0,0,0,0,0,0,0,0,0,0,0,0,0,0,0,0,0,0,0,0,0,0,0,0,0.9167,0.9168,0,0.9254,0.9255,0.9256,0.9264,0.9263,0.9262,0.9261,0.935,0.9353,0.9356,0,0,0,0,0,0,0,0,0,0,0,0,0,0.9004,0.9007,0.9167,0.9168,0.9169,0.9254,0.9255,0.9257,0.9264,0.9263,0.9261,0.926,0.9349,0.9352,0.9356,0,0,0,0,0,0,0,0,0,0,0,0,0,0.9081,0.9008,0.9167,0.9183,0.9185,0.9254,0.9255,0.9257,0.9264,0.9263,0.9261,0.926,0.9347,0.9352,0.9357,0.9415,0,0,0.9372,0.9374,0,0,0,0,0,0,0,0,0.9077,0.9087,0.9179,0.9182,0.9185,0.9247,0.9231,0.931,0.9264,0.9234,0.9261,0.9259,0.9316,0.9324,0.9343,0.9419,0.9423,0.9372,0.9375,0.9377,0.9379,0,0,0,0,0,0,0,0.9072,0.9084,0.9201,0.9181,0.9184,0.9185,0.9195,0.9246,0.9282,0.9237,0.9237,0.9248,0.9318,0.9339,0.9345,0.9425,0.9372,0.9376,0.9379,0.9381,0.9552,0.9553,0,0,0,0,0,0,0.9063,0.9079,0.9199,0.9204,0.9126,0.9189,0.92,0.9228,0.9282,0.9288,0.9249,0.9248,0.9331,0.934,0.9349,0.942,0.9377,0.9382,0.9385,0.955,0.9552,0.9554,0,0,0,0,0,0,0.906,0.9074,0.9195,0.9142,0.9157,0.9193,0.9225,0.9231,0.9252,0.9291,0.9297,0.9264,0.933,0.9342,0.9398,0.9423,0.9384,0.9388,0.9548,0.9551,0.9553,0.9562,0,0,0,0,0,0,0.9055,0.9073,0.9096,0.9142,0.916,0.9244,0.9227,0.9233,0.926,0.9259,0.9306,0.9313,0.933,0.9391,0.9403,0.9429,0.9392,0.9546,0.9549,0.9552,0.956,0.9565,0.9569,0,0,0,0,0,0.9049,0.9095,0.9097,0.9111,0.919,0.9245,0.9255,0.9275,0.9262,0.9285,0.931,0.9311,0.9418,0.9397,0.9411,0.9438,0.9545,0.9548,0.9552,0.9558,0.9564,0.9569,0,0,0,0,0,0,0.905,0.9101,0.9104,0.9166,0.9201,0.9246,0.9276,0.928,0.932,0.9317,0.9339,0.9349,0.9405,0.9427,0.9403,0.9497,0.948,0.9487,0.948,0.9486,0.949,0.9483,0.9396,0,0,0,0,0,0.9057,0.9099,0.9141,0.9192,0.9209,0.924,0.9265,0.9276,0.9313,0.9328,0.9357,0.9393,0.9435,0.9462,0.9502,0.9563,0.9573,0.9589,0.9593,0.9597,0.9602,0.9635,0.9642,0.9566,0.9566,0.9565,0,0,0.9073,0.9106,0.9131,0.9193,0.9222,0.9263,0.9252,0.9297,0.9328,0.9335,0.939,0.9413,0.9454,0.9513,0.954,0.9533,0.9625,0.9601,0.9604,0.9607,0.9639,0.9646,0.9653,0.9568,0.9568,0.9567,0,0,0.9123,0.9152,0.9197,0.9226,0.927,0.9289,0.93,0.9345,0.936,0.9416,0.9422,0.9458,0.953,0.9559,0.9583,0.9642,0.9645,0.9655,0.9678,0.971,0.9716,0.9721,0.9741,0.9748,0.966,0.966,0.966,0,0.9137,0.92,0.922,0.9264,0.9291,0.93,0.9345,0.9372,0.9426,0.9444,0.9435,0.9524,0.9553,0.9618,0.9632,0.9652,0.9664,0.9649,0.9713,0.9719,0.9724,0.9744,0.9751,0.9661,0.9661,0.9661,0.9661,0,0.9214,0.9258,0.9289,0.9341,0.9372,0.9416,0.9442,0.947,0.9479,0.9499,0.9555,0.959,0.9637,0.9653,0.9662,0.972,0.9713,0.9709,0.9692,0.9732,0.9751,0.9759,0.9662,0.9662,0.9662,0.9661,0,0,0.9267,0.9329,0.934,0.9363,0.9412,0.9446,0.949,0.9536,0.956,0.9597,0.9634,0.9694,0.9689,0.9717,0.9729,0.9757,0.9801,0.9749,0.975,0.9756,0.9865,0.9867,0.9876,0.9803,0.9804,0.9806,0.9861,0,0.9321,0.9401,0.942,0.9488,0.9528,0.9537,0.9575,0.9609,0.9629,0.9665,0.9687,0.9729,0.9721,0.9737,0.9765,0.9789,0.9823,0.9786,0.9837,0.9838,0.9825,0.9886,0.9889,0.9939,0.9868,0.987,0.9871,0,0.9395,0.9434,0.9506,0.9548,0.9566,0.96,0.9643,0.9679,0.9716,0.9729,0.9759,0.9768,0.9814,0.9796,0.9859,0.9833,0.9855,0.987,0.9873,0.9878,0.9856,0.9891,0.9956,0.9963,0.9882,0.9881,0.9881,0,0.9425,0.9495,0.9547,0.9567,0.9618,0.9641,0.9664,0.97,0.9726,0.9764,0.9781,0.9824,0.9847,0.9879,0.9899,0.9885,0.996,0.9944,0.9971,0.9971,0.9987,0.9985,1.0055,1.0002,1.0002,1.0002,1.0002,0,0.9483,0.9526,0.9561,0.9593,0.9641,0.9662,0.971,0.9732,0.9764,0.98,0.981,0.9843,0.9869,0.9905,0.9921,0.997,0.9981,0.9992,0.9995,0.9991,0.9989,1.0005,1.0001,1.0004,1.0003,1.0003,1.0003,0,0.9524,0.9549,0.9606,0.9649,0.9661,0.9695,0.9732,0.9763,0.9783,0.9828,0.984,0.9871,0.9915,0.9938,0.9993,1.0004,1.0058,1.0061,1.0046,1.0047,1.0073,1.0069,1.0154,1.0166,1.0106,1.0107,1.0107,0,0.9559,0.9592,0.9639,0.9664,0.9687,0.9727,0.9753,0.9775,0.9803,0.9848,0.9873,0.9917,0.9953,1.0022,1.005,1.0091,1.0094,1.0121,1.01,1.0094,1.0093,1.0091,1.0093,1.0124,1.0125,1.0125,1.0125,0,0.9618,0.9628,0.9667,0.9709,0.9741,0.9775,0.981,0.9829,0.9857,0.9887,0.9931,0.9959,1.0015,1.0058,1.0102,1.0124,1.0129,1.0132,1.014,1.0135,1.0124,1.0129,1.0054,1.013,1.0129,1.0129,1.0129,1.0128,0.9656,0.9686,0.9723,0.9766,0.9794,0.9825,0.9856,0.988,0.9918,0.9965,0.9975,1.0022,1.0058,1.0117,1.0141,1.0177,1.0172,1.0184,1.0187,1.019,1.019,1.0119,1.0185,1.0185,1.0185,1.0185,1.0185,0,0.9714,0.9739,0.9778,0.9825,0.9858,0.986,0.9898,0.9925,0.9966,1.0,1.0035,1.0086,1.0128,1.0159,1.0201,1.0224,1.0228,1.0235,1.0233,1.0238,1.0193,1.0181,1.0231,1.0231,1.0231,1.0231,1.0231,1.0231,0.9749,0.9799,0.9814,0.9878,0.9902,0.9948,0.9969,0.9998,1.0025,1.0081,1.0116,1.0136,1.0168,1.0213,1.0251,1.0259,1.0274,1.0281,1.0289,1.0246,1.0241,1.0236,1.0225,1.0284,1.0284,1.033,1.0331,1.0331]},{"header":{"parameterUnit":"m.s-1","parameterCategory":1,"la1":30.2991,"la2":30.254,"lo1":-89.0895,"lo2":-89.0444,"dy":0.0017,"dx":0.0017,"nx":28,"ny":28,"refTime":"2024-06-09T03:00:00:Z","depth":0,"parameterNumber":3,"parameterNumberName":"V-component_of_WINDS"},"data":[0,0,0,0,0,0,0,0,0,0,0,0,0,0,0,0,0,0,0,0,0,0,0,0,0,0,0,0,0,0,0,0,0,0,0,0,0,0,0,0,0,0,0,0,0,0,0,0,0,0,0,0,0,0,0,0,0,0,4.5378,4.5379,0,4.5411,4.5412,4.5412,4.5342,4.534,4.5337,4.5335,4.5364,4.5367,4.537,0,0,0,0,0,0,0,0,0,0,0,0,0,4.5249,4.5252,4.5378,4.5379,4.5379,4.5411,4.5412,4.5412,4.5342,4.5339,4.5337,4.5334,4.5364,4.5367,4.537,0,0,0,0,0,0,0,0,0,0,0,0,0,4.5296,4.5252,4.5378,4.5348,4.5346,4.5411,4.5412,4.5412,4.5343,4.5339,4.5336,4.5333,4.5362,4.5367,4.5371,4.5466,0,0,4.5384,4.5386,0,0,0,0,0,0,0,0,4.5293,4.53,4.5352,4.535,4.5348,4.5369,4.5377,4.543,4.5344,4.5344,4.5335,4.5331,4.5368,4.5372,4.5386,4.5467,4.5468,4.5385,4.5387,4.5389,4.539,0,0,0,0,0,0,0,4.529,4.5299,4.5391,4.5353,4.535,4.5331,4.5334,4.5386,4.5375,4.5343,4.5339,4.5344,4.5367,4.5382,4.5386,4.5469,4.5384,4.5388,4.5391,4.5393,4.5628,4.5631,0,0,0,0,0,0,4.5291,4.5296,4.539,4.5392,4.5312,4.5336,4.534,4.5366,4.5374,4.5372,4.5346,4.534,4.5376,4.5381,4.5386,4.5497,4.5389,4.5393,4.5396,4.5624,4.5629,4.5633,0,0,0,0,0,0,4.5289,4.53,4.5389,4.5343,4.5353,4.5342,4.5372,4.5368,4.5383,4.5376,4.5373,4.5364,4.5373,4.538,4.5446,4.5497,4.5395,4.5399,4.562,4.5626,4.5631,4.572,0,0,0,0,0,0,4.5285,4.53,4.5337,4.5344,4.5356,4.545,4.5375,4.5371,4.5391,4.5383,4.5392,4.539,4.5371,4.544,4.5451,4.5501,4.5402,4.5615,4.5622,4.5629,4.5712,4.5728,4.5741,0,0,0,0,0,4.5281,4.536,4.5339,4.5351,4.5402,4.5453,4.5459,4.5437,4.5396,4.5432,4.5427,4.539,4.549,4.5448,4.5459,4.5511,4.5612,4.562,4.5628,4.5706,4.5725,4.5741,0,0,0,0,0,0,4.5357,4.536,4.5337,4.5422,4.5438,4.5441,4.5486,4.5458,4.5485,4.5476,4.5446,4.5448,4.552,4.5522,4.5475,4.5603,4.5544,4.5555,4.5599,4.5617,4.5631,4.5628,4.5406,0,0,0,0,0,4.5384,4.5427,4.5427,4.5501,4.551,4.5497,4.5519,4.55,4.5515,4.5521,4.5521,4.5536,4.557,4.5593,4.5625,4.5712,4.5712,4.5754,4.5768,4.578,4.5789,4.5835,4.5853,4.566,4.5659,4.5659,0,0,4.544,4.5447,4.5475,4.5517,4.5527,4.557,4.5503,4.5552,4.5584,4.5528,4.5591,4.5591,4.5605,4.5682,4.5716,4.5686,4.5843,4.579,4.58,4.5803,4.5845,4.5863,4.588,4.5665,4.5664,4.5663,0,0,4.5563,4.5574,4.5636,4.5648,4.5665,4.5656,4.5671,4.5678,4.5677,4.574,4.5699,4.5735,4.5795,4.5807,4.582,4.5948,4.5914,4.5959,4.6033,4.6078,4.6093,4.6106,4.6151,4.6167,4.5968,4.5968,4.5968,0,4.563,4.5695,4.5671,4.5723,4.5742,4.5695,4.5757,4.5769,4.5795,4.5808,4.5775,4.5849,4.5855,4.5934,4.5965,4.5978,4.5993,4.5957,4.6093,4.6106,4.6118,4.616,4.6177,4.5974,4.5973,4.5972,4.5972,0,4.5775,4.5821,4.5869,4.5897,4.5921,4.5978,4.5961,4.5988,4.5967,4.5961,4.6024,4.603,4.6062,4.6079,4.6059,4.6155,4.6135,4.6098,4.6038,4.6142,4.6181,4.6197,4.5981,4.5979,4.5978,4.5976,0,0,4.5948,4.5962,4.598,4.5992,4.6007,4.6041,4.6094,4.6127,4.615,4.6169,4.6212,4.6264,4.623,4.6245,4.6226,4.6265,4.6365,4.6222,4.6222,4.6248,4.647,4.6497,4.6517,4.6342,4.6345,4.6348,4.6468,0,4.607,4.6164,4.6144,4.6236,4.6277,4.6233,4.6279,4.6293,4.6288,4.6321,4.6315,4.6352,4.6304,4.6313,4.635,4.6345,4.6408,4.6336,4.6381,4.6383,4.6379,4.6537,4.6567,4.668,4.6483,4.6486,4.6488,0,4.6224,4.6251,4.6348,4.6356,4.6372,4.6415,4.6442,4.6474,4.6488,4.6482,4.6499,4.6472,4.6523,4.6463,4.6533,4.6484,4.6501,4.6502,4.6505,4.6508,4.6442,4.6544,4.6716,4.6733,4.6512,4.651,4.6508,0,4.634,4.6399,4.6465,4.6476,4.6487,4.6518,4.6523,4.6534,4.6554,4.6578,4.659,4.6619,4.6635,4.6657,4.6637,4.6595,4.671,4.6648,4.6705,4.6706,4.6731,4.6729,4.6908,4.6743,4.6743,4.6742,4.6742,0,4.6478,4.6538,4.6517,4.6557,4.6623,4.6598,4.6664,4.6664,4.6674,4.6712,4.6674,4.6711,4.6683,4.6716,4.6701,4.6761,4.6768,4.6764,4.6759,4.6767,4.6768,4.6777,4.6769,4.6747,4.6746,4.6745,4.6744,0,4.6618,4.6606,4.6674,4.6679,4.6682,4.673,4.6733,4.677,4.6762,4.6811,4.6821,4.6809,4.6846,4.6829,4.6868,4.6858,4.6934,4.6919,4.6931,4.6926,4.6984,4.6979,4.7174,4.7198,4.7019,4.7021,4.7022,0,4.6706,4.6752,4.6762,4.6786,4.6795,4.6833,4.6854,4.6831,4.6854,4.6873,4.6907,4.6941,4.6967,4.7029,4.7023,4.7052,4.7037,4.7103,4.7041,4.7047,4.7037,4.7034,4.7038,4.7116,4.7118,4.7119,4.7121,0,4.6865,4.6856,4.6889,4.692,4.6946,4.6968,4.6987,4.7008,4.6986,4.7013,4.7052,4.7072,4.7112,4.7147,4.7172,4.7176,4.7145,4.7141,4.7155,4.7164,4.7168,4.7166,4.6964,4.7136,4.7135,4.7133,4.7133,4.7132,4.6981,4.7019,4.7033,4.707,4.7082,4.7101,4.7135,4.7132,4.7164,4.7196,4.718,4.7225,4.7236,4.7267,4.7275,4.7309,4.7282,4.7304,4.7309,4.7314,4.7322,4.7163,4.7313,4.7313,4.7312,4.7312,4.7312,0,4.7137,4.7143,4.7178,4.7206,4.7235,4.7204,4.7223,4.7249,4.7289,4.7303,4.733,4.7374,4.7407,4.7403,4.7433,4.7461,4.7447,4.7469,4.7467,4.7468,4.7344,4.7328,4.748,4.748,4.748,4.748,4.748,4.748,4.7221,4.7284,4.7278,4.7346,4.7351,4.7396,4.7409,4.7426,4.7437,4.7488,4.7515,4.7513,4.752,4.755,4.7578,4.7576,4.7588,4.7616,4.7609,4.7493,4.7477,4.7461,4.7446,4.7619,4.7619,4.773,4.7731,4.7731]}]]